Regional Weather Roundup
Issued by NWS Little Rock, AR

Home | Current Version | Previous Version | Graphics & Text | Print | Product List | Glossary On
Versions: 1 2 3 4 5 6 7 8 9 10 11 12 13 14 15 16 17 18 19 20 21 22 23 24 25 26 27 28 29 30 31 32 33 34 35 36 37 38 39 40 41 42 43 44 45 46 47 48 49 50
000
ASUS44 KLZK 222005
RWRLZK

WEATHER ROUNDUP FOR ARKANSAS
NATIONAL WEATHER SERVICE LITTLE ROCK AR
300 PM CDT MON MAY 22 2017

NOTE: "FAIR" INDICATES FEW OR NO CLOUDS BELOW 12,000 FEET WITH NO
SIGNIFICANT WEATHER AND/OR OBSTRUCTIONS TO VISIBILITY.

ARZ001-003-010-029-222100-
NORTHWEST ARKANSAS

CITY           SKY/WX    TMP DP  RH WIND       PRES   REMARKS
FAYETTEVILLE   MOSUNNY   73  47  39 S8        30.01F
FORT SMITH     SUNNY     79  47  32 S8        29.99F
HARRISON       SUNNY     72  48  42 VRB3      30.04F
BENTONVILLE    MOSUNNY   73  48  40 W5        30.03F
ROGERS         MOSUNNY   74  46  36 VRB6      30.03F
SILOAM SPGS    CLOUDY    73  46  38 S3        30.01F
HIGHFILL       CLOUDY    74  48  39 S10       30.03F
SPRINGDALE     PTSUNNY   73  48  40 SE8       30.03F
$$

ARZ004-005-016-222100-
NORTH CENTRAL ARKANSAS

CITY           SKY/WX    TMP DP  RH WIND       PRES   REMARKS
BATESVILLE     SUNNY     75  50  41 E6        30.04F
FLIPPIN        SUNNY     75  45  33 E8        30.01F
MTN HOME       SUNNY     73  47  39 VRB5      30.03F
$$

ARZ040-041-222100-
WEST CENTRAL ARKANSAS

CITY           SKY/WX    TMP DP  RH WIND       PRES   REMARKS
MENA           SUNNY     79  54  41 NE7       30.01F
MOUNT IDA      MOSUNNY   77  46  33 VRB5      30.00F
$$

ARZ009-017-025-026-028-222100-
NORTHEAST ARKANSAS

CITY           SKY/WX    TMP DP  RH WIND       PRES   REMARKS
JONESBORO      MOSUNNY   73  44  35 VRB3      30.03F
NEWPORT        MOSUNNY   73  48  41 VRB3      30.04F
WALNUT RIDGE   SUNNY     73  50  43 E3        30.03F
BLYTHEVILLE    PTSUNNY   72  53  51 SE7       30.03F
$$

ARZ022-023-033-042-044-222100-
CENTRAL ARKANSAS

CITY           SKY/WX    TMP DP  RH WIND       PRES   REMARKS
LITTLE ROCK    CLOUDY    67  51  56 SE6       30.04F
N LITTLE ROCK    N/A     68  50  52 E8        30.04F
JACKSONVILLE   CLOUDY    71  51  49 E7        30.02F
CONWAY           N/A     75  52  43 SE12      30.01F
SEARCY         CLOUDY    72  56  57 SE8       30.04F
HOT SPRINGS    CLOUDY    70  53  54 SE9       30.04F
RUSSELLVILLE   SUNNY     75  47  36 VRB7      30.01F
CLINTON        FAIR      75  48  38 SE6       30.01F
$$

ARZ036-222100-
EAST ARKANSAS

CITY           SKY/WX    TMP DP  RH WIND       PRES   REMARKS
WEST MEMPHIS   CLOUDY    72  54  53 SE5       30.02F
$$

ARZ050-053-066-070-073-222100-
SOUTHWEST ARKANSAS

CITY           SKY/WX    TMP DP  RH WIND       PRES   REMARKS
ARKADELPHIA      N/A     70  57  63 VRB3      30.04F
CAMDEN         PTSUNNY   66  55  68 E3        30.03F
TEXARKANA      CLOUDY    67  58  72 VRB7      30.03F
EL DORADO      LGT RAIN  61  60  97 E7        30.04F
DE QUEEN       MOSUNNY   78  54  43 E6        30.00F
$$

ARZ056-057-069-222100-
SOUTHEAST ARKANSAS

CITY           SKY/WX    TMP DP  RH WIND       PRES   REMARKS
PINE BLUFF     CLOUDY    67  55  65 E5        30.05S
STUTTGART      CLOUDY    70  46  43 NE7       30.03F
MONTICELLO     LGT RAIN  64  60  87 CALM      30.04F

$$





USA.gov is the U.S. government's official web portal to all federal, state and local government web resources and services.